RH
22 26 28 32 34 36 38 41 40 38 35 30 24 18 18 15 18 22 16 11 11 16 19 16 18 15 23 22 22 18 18 28 23 24 25 22 25 36 45 49 48 47 73 70 73
25 30 32 34 38 37 40 42 40 37 34 30 21 19 17 20 22 18 12 11 13 19 17 14 15 18 25 23 22 18 19 18 18 21 24 20 18 34 43 44 46 57 69 72 74
29 36 37 37 41 38 42 42 40 39 34 27 21 18 20 24 28 22 10 9 13 21 19 15 17 20 24 22 20 20 17 13 9 6 18 22 19 36 40 38 41 62 82 76 92
34 40 40 38 40 38 42 43 40 37 32 24 19 19 24 26 30 20 17 18 20 18 17 19 20 19 23 21 18 15 14 8 6 7 16 18 28 39 31 26 30 36 44 63 87
37 43 41 36 38 39 43 44 39 36 28 21 20 23 28 31 21 19 18 21 19 17 18 17 19 19 25 23 14 13 10 11 8 11 18 12 28 32 14 26 30 40 55 58 61
42 44 37 38 40 42 44 44 37 32 26 20 22 26 30 49 20 20 17 16 19 18 21 21 15 15 19 15 14 11 11 12 9 10 9 14 12 17 17 35 33 39 42 55 58
45 45 43 45 42 46 46 41 33 29 23 21 25 29 31 18 18 17 18 14 14 15 16 17 17 16 17 12 9 10 11 12 14 13 15 12 14 20 47 42 42 72 72 72 68
46 50 50 47 44 46 42 32 28 23 22 26 30 32 24 16 16 16 15 12 12 14 15 17 18 18 15 11 13 13 16 14 12 15 16 10 14 32 40 48 49 56 65 62 62
49 53 52 44 45 43 33 27 24 25 29 32 37 40 21 16 16 14 13 12 12 13 15 15 18 15 11 17 17 19 16 17 16 27 17 18 28 44 37 51 53 47 46 48 50
53 52 49 42 42 36 28 27 28 31 35 42 46 50 16 19 16 13 13 10 14 14 16 16 13 19 17 14 18 17 17 17 17 23 32 38 50 52 60 54 59 57 53 48 44
54 53 43 41 37 30 29 33 47 48 42 23 24 23 20 19 12 12 12 10 14 12 21 19 18 19 18 16 14 16 17 18 20 33 42 51 53 55 62 62 65 66 60 55 51
54 52 38 39 31 27 30 46 49 48 41 21 24 20 17 19 14 13 11 13 16 22 21 22 24 21 28 26 25 26 28 34 34 35 39 45 55 54 57 65 68 66 67 60 61
53 47 37 36 29 29 33 51 52 58 46 26 21 20 18 19 16 16 16 18 20 23 24 27 22 25 27 29 31 32 31 35 34 36 35 38 47 57 57 65 69 71 72 74 75
51 42 37 30 34 32 38 42 63 56 39 26 20 17 19 18 20 20 19 18 23 27 30 30 28 25 27 30 29 34 32 37 39 36 36 34 38 55 58 62 62 66 68 70 72
49 39 35 34 35 35 57 56 54 42 54 24 18 18 20 18 19 24 24 19 27 28 27 31 28 28 30 28 30 35 37 33 32 32 32 37 37 44 55 63 60 61 65 63 60
50 35 38 35 48 47 59 50 44 63 51 22 20 20 25 26 27 24 22 21 24 33 31 32 27 28 27 32 31 38 37 40 43 40 43 38 34 41 56 53 55 58 62 55 47
52 34 38 40 48 52 44 36 59 62 29 25 24 22 28 34 33 32 35 38 32 39 41 31 31 28 27 31 30 34 38 48 49 54 47 46 44 34 38 45 47 51 54 50 46
52 42 41 43 53 39 30 39 39 39 38 23 26 26 31 32 35 34 34 37 35 37 41 34 37 27 28 29 32 36 37 53 57 60 45 45 48 33 36 39 44 47 51 49 49
52 53 48 53 53 38 31 68 46 44 28 30 28 32 35 32 34 38 38 37 36 35 38 41 36 27 28 28 29 33 36 40 58 60 54 46 42 34 42 40 49 53 53 56 52
49 58 47 54 41 31 56 52 43 44 34 28 30 32 38 36 38 39 38 40 37 40 35 39 36 31 29 30 33 31 35 39 47 56 54 45 51 40 49 43 44 51 53 54 52
51 60 53 45 38 28 64 48 50 43 37 29 34 37 36 38 42 43 43 44 44 41 36 35 40 38 33 34 34 35 38 50 45 53 42 48 37 43 43 40 43 44 54 49 53
65 56 48 39 41 62 56 51 45 43 31 36 30 34 38 43 48 50 48 45 48 46 40 41 51 51 34 33 36 32 36 38 44 39 62 61 36 48 52 46 47 47 48 50 54
62 67 55 34 61 77 48 43 42 35 31 33 40 39 47 56 52 56 55 47 39 41 45 43 51 56 39 30 32 35 42 45 52 62 62 73 33 50 60 55 50 50 52 54 59
50 87 71 43 32 44 40 38 35 36 36 35 45 45 55 58 62 66 61 48 42 50 45 39 51 46 46 36 40 41 47 44 40 52 51 58 37 34 48 54 63 63 58 59 58
45 71 66 88 60 44 31 39 41 40 35 33 41 41 52 60 60 66 60 49 52 54 58 45 48 51 57 56 46 34 44 45 37 40 46 40 43 33 38 48 60 68 65 57 55
44 58 56 65 39 46 44 52 46 40 40 36 44 48 45 57 48 66 57 49 44 64 59 58 61 56 62 62 57 48 39 43 49 47 42 46 45 36 52 60 67 66 61 60 56
52 36 27 82 78 59 69 53 49 44 48 44 44 53 50 56 54 55 48 52 57 61 66 61 77 53 48 63 50 49 47 42 47 44 43 53 37 58 62 62 60 66 63 58 55
Wind_Speed
21 21 21 22 23 23 22 20 19 18 17 15 13 11 13 14 15 18 20 10 4 10 9 8 10 7 5 6 5 4 1 4 6 8 7 10 5 9 7 13 6 6 8 14 27
21 21 21 22 22 23 22 19 17 17 15 13 10 10 12 13 17 19 7 11 10 14 10 10 10 8 6 5 5 4 2 6 3 10 13 19 13 9 7 8 3 8 11 31 27
21 21 21 22 22 22 20 18 16 15 12 10 9 9 10 12 16 4 4 13 15 13 9 9 5 6 4 5 6 4 3 4 5 8 9 15 6 6 18 5 5 14 29 28 25
20 21 21 21 22 21 18 16 15 12 9 8 8 8 9 9 0 3 7 10 10 12 11 11 9 6 4 4 6 3 5 2 7 6 10 8 13 6 6 1 2 16 28 29 26
20 20 20 20 21 18 15 14 12 9 7 8 8 7 8 7 7 9 5 8 12 14 14 15 12 7 5 6 7 4 3 2 2 11 17 12 8 7 3 6 12 20 27 26 24
19 18 19 19 19 15 13 12 9 7 7 8 6 7 7 5 2 1 6 3 11 14 16 16 7 12 4 3 5 6 7 8 8 12 8 9 5 5 6 12 19 22 25 25 24
17 16 18 18 16 12 9 8 7 7 8 6 7 8 11 11 3 9 9 4 8 11 11 16 17 7 6 3 5 8 7 6 8 4 4 9 5 5 8 13 19 18 20 21 21
14 16 16 16 14 9 6 6 7 7 7 6 5 9 8 2 6 8 4 3 3 6 8 8 8 12 2 8 5 4 4 4 2 2 4 1 3 7 8 9 11 15 18 19 16
13 15 14 13 11 8 7 7 7 7 7 5 6 6 7 3 4 2 2 3 5 1 4 1 15 6 6 4 3 7 3 3 4 11 2 7 1 11 5 11 11 12 13 14 12
12 13 12 12 8 7 8 9 9 6 6 4 5 2 4 2 5 3 3 3 1 7 11 8 3 3 3 3 4 4 4 2 5 4 11 11 5 9 9 9 11 12 13 14 12
12 11 11 10 9 9 12 12 5 2 11 6 3 2 1 3 5 5 4 4 4 5 4 1 4 4 3 3 3 5 3 6 3 3 7 8 8 9 8 10 9 10 13 14 13
10 10 10 12 11 14 15 5 3 2 2 14 16 16 11 2 2 5 2 0 3 3 2 6 5 2 5 5 6 5 6 4 5 4 6 8 11 8 9 5 5 11 14 17 19
10 11 12 14 15 16 13 3 2 4 1 4 7 5 0 7 3 4 4 4 4 3 2 6 2 3 5 4 7 4 7 4 5 7 8 7 5 4 6 8 10 12 16 19 24
12 13 15 15 13 11 8 4 2 3 4 4 3 1 4 6 3 2 5 3 4 4 3 6 2 4 4 3 1 4 4 11 11 2 3 3 3 1 2 5 7 10 13 19 25
15 16 18 19 8 12 5 3 4 5 3 4 2 3 5 3 5 3 3 4 6 4 2 0 3 3 5 2 1 4 6 7 3 4 3 2 2 3 5 7 9 11 10 17 23
18 20 21 21 10 6 5 5 6 6 3 2 2 2 4 5 3 1 4 7 7 5 5 3 3 2 3 2 4 10 6 6 3 2 0 1 2 5 10 14 13 12 12 18 24
21 24 25 18 11 9 5 7 5 4 2 2 3 3 4 2 4 4 4 4 3 4 3 4 2 1 1 5 3 5 4 2 1 1 3 1 2 5 15 12 18 21 20 23 24
23 26 25 19 13 7 5 4 3 3 5 1 3 3 4 2 3 4 3 3 5 4 3 4 0 2 4 2 4 2 4 4 5 4 2 1 5 3 3 15 22 24 21 23 24
25 25 24 17 13 10 5 4 6 6 3 6 3 5 1 1 4 3 3 2 1 1 4 3 1 2 3 1 1 3 2 2 6 2 1 2 3 6 1 10 15 18 21 22 23
27 21 23 16 17 13 5 5 3 4 1 2 4 2 3 2 3 3 1 1 2 1 1 5 3 1 1 2 7 1 6 3 2 4 3 2 5 5 6 14 12 16 20 21 21
25 11 18 19 18 10 4 5 5 6 6 5 5 3 3 4 3 2 5 1 2 1 3 3 3 2 1 0 4 3 2 5 4 1 3 2 4 4 8 13 16 22 20 23 23
19 3 23 21 4 2 4 5 3 3 3 4 4 3 5 3 4 4 6 1 2 2 4 1 4 3 1 0 1 1 3 4 3 4 1 0 5 1 6 10 12 12 19 21 24
15 5 21 22 4 0 2 2 2 2 1 2 2 3 2 4 4 2 3 2 3 3 5 5 1 3 3 2 1 2 2 4 5 2 5 3 3 0 3 5 12 16 18 20 26
17 3 5 8 6 9 5 3 1 3 2 3 5 3 4 3 3 4 3 2 2 3 4 3 3 4 7 3 1 4 4 4 3 3 4 6 4 4 5 7 9 14 18 22 27
13 4 9 3 1 5 4 6 5 2 2 2 3 2 5 4 2 3 2 2 3 4 3 2 4 2 1 1 1 2 4 8 7 4 6 4 8 6 9 12 15 14 20 25 27
11 7 6 4 18 7 1 6 6 2 1 2 5 3 2 5 6 8 6 4 4 2 2 2 4 2 4 1 3 3 5 7 6 3 10 4 11 8 3 9 15 21 26 27 28
10 14 19 1 4 6 6 6 8 6 1 3 6 4 3 1 4 10 8 11 6 5 3 2 6 3 3 2 2 5 9 10 5 5 7 8 8 6 6 14 21 23 27 28 27
Wind_Direction
291 298 305 308 306 306 304 306 305 301 297 294 297 298 297 295 290 283 275 266 198 195 172 176 180 177 180 187 192 182 176 187 188 121 108 78 38 148 134 135 131 161 172 169 156
293 299 303 303 303 302 303 304 300 295 293 295 293 294 293 295 293 290 301 212 196 180 166 159 171 178 177 188 186 171 190 216 217 127 195 165 187 148 128 146 125 129 152 157 162
294 300 303 305 303 300 300 300 295 291 297 286 281 284 290 300 311 18 51 173 167 169 168 181 173 180 194 173 191 182 213 210 248 167 161 148 111 160 146 190 197 154 148 162 162
296 300 304 304 300 297 298 292 288 291 287 274 269 277 280 298 72 18 153 168 172 183 185 188 191 174 180 198 187 204 231 224 340 98 113 125 135 107 125 77 178 165 163 165 170
294 302 303 302 298 296 292 285 284 281 262 254 267 273 283 285 253 70 119 183 188 193 200 193 186 183 181 186 167 178 229 89 80 124 126 132 110 138 79 102 151 157 166 172 175
295 302 301 301 298 294 287 283 275 258 241 242 251 253 274 273 275 80 347 243 225 226 217 211 212 207 180 202 191 145 116 104 103 115 132 119 91 111 11 147 164 166 176 178 183
294 297 300 301 295 289 281 267 249 230 231 224 229 254 264 243 295 310 321 312 241 237 244 239 227 206 171 156 163 124 82 67 34 63 80 91 47 34 359 173 163 163 175 182 188
287 293 299 299 289 275 248 227 217 212 207 197 235 258 250 213 283 303 312 334 290 243 247 239 209 212 277 138 54 79 62 104 22 70 38 87 164 4 13 155 131 160 178 183 180
282 290 295 288 275 250 220 196 193 187 188 199 236 232 266 200 265 293 327 350 329 11 167 167 148 166 139 123 73 24 122 123 96 18 100 38 48 342 26 146 108 134 157 181 180
276 285 287 273 252 220 191 167 157 182 196 200 236 258 251 213 216 214 294 323 56 149 110 160 146 107 83 136 159 152 137 133 116 19 56 77 54 6 37 120 119 131 137 149 168
270 278 268 247 222 192 172 154 142 220 208 204 241 265 18 7 193 231 262 321 26 48 58 20 119 117 103 55 127 120 106 105 65 149 77 76 66 32 47 84 111 132 141 139 145
257 259 240 225 195 181 180 196 183 140 281 241 250 271 276 264 191 208 227 91 59 85 311 46 76 337 74 67 89 94 126 99 89 112 93 99 62 54 46 59 121 138 135 136 135
237 235 220 210 187 187 193 149 231 244 152 235 238 251 155 169 167 179 177 136 81 56 358 116 124 83 77 79 120 68 103 165 132 105 96 116 69 43 51 87 108 114 124 127 130
220 215 210 188 189 190 221 201 245 186 79 289 235 157 150 152 73 124 156 135 50 136 132 78 39 115 103 108 222 87 108 127 122 84 138 323 170 132 120 119 126 129 130 134 134
209 203 201 182 180 183 182 258 180 148 91 253 204 134 141 143 139 39 119 120 141 150 170 224 112 99 75 308 136 118 133 118 97 102 151 68 121 148 171 195 184 174 157 152 147
205 195 197 190 197 173 223 173 147 49 255 208 183 120 69 30 28 28 97 95 121 85 41 92 62 55 121 52 60 143 94 54 56 70 258 161 222 192 194 199 187 185 177 162 155
200 194 196 184 177 187 199 166 45 127 309 204 151 107 88 33 35 32 33 37 119 100 34 26 3 298 111 101 90 76 98 92 180 202 229 335 204 259 206 187 183 184 184 174 169
197 201 198 189 167 182 171 63 150 225 220 26 121 95 114 174 30 17 85 77 31 75 107 144 287 18 351 81 148 109 165 164 197 197 202 130 229 236 212 202 186 186 182 181 183
195 203 206 181 185 186 190 76 204 210 201 159 80 95 69 79 114 74 56 103 44 12 123 138 141 351 38 88 149 159 168 113 106 24 212 228 272 267 166 188 182 173 180 185 188
190 198 197 195 176 172 88 208 222 209 231 170 138 136 145 150 86 80 155 248 130 48 185 188 113 54 100 100 54 127 135 120 45 155 249 251 271 242 202 195 192 184 187 190 194
182 195 186 182 166 170 155 214 234 255 214 178 155 122 134 139 120 140 178 278 193 102 118 128 105 252 180 8 165 142 127 66 102 66 175 290 256 214 229 203 201 203 195 194 192
175 184 175 173 97 89 153 195 185 279 181 214 117 108 146 146 137 160 181 197 162 183 155 159 124 132 156 301 303 112 141 139 126 188 71 233 273 163 269 249 221 202 199 196 193
174 141 174 182 134 260 258 189 171 304 306 131 100 111 94 137 114 143 143 113 164 143 161 187 52 88 22 352 356 212 138 109 105 102 189 164 260 60 294 252 218 194 192 187 185
177 119 136 182 166 138 146 161 142 241 246 109 119 90 104 98 36 156 133 51 117 114 118 106 110 161 188 190 160 174 174 168 140 141 171 232 267 261 246 227 201 191 188 181 182
189 163 153 181 242 132 131 163 149 270 204 87 81 157 148 120 98 128 129 122 54 133 66 104 149 119 99 19 250 221 181 187 204 178 191 226 214 244 231 217 206 190 178 177 184
169 141 123 124 156 117 158 192 149 207 209 119 124 134 140 150 181 189 146 189 185 68 84 15 160 149 183 347 13 277 238 206 229 229 255 251 268 220 255 186 185 191 185 189 193
175 162 168 28 102 126 195 182 178 148 46 77 148 119 97 105 116 106 114 105 117 136 130 106 140 133 239 1 12 318 224 199 191 206 201 217 242 177 200 206 204 196 198 200 203